This is the latest recevied weather packets stored in our database for station/object BARLOW-WX. If no packets are shown the sender has not sent any weather packets the latest 10 day(s).
| Time | Temp. | Humidity | Pressure | Rain* | Wind** | Luminosity | Snow |
|---|---|---|---|---|---|---|---|
| 1787390179 | 17.78° C | 78% | 984.6 hPa | 0 mm | - | - | - |
| 1787389279 | 18.33° C | 78% | 984.6 hPa | 0 mm | - | - | - |
| 1787388377 | 18.33° C | 89% | 984.8 hPa | 0 mm | - | - | - |
| 1787387480 | 18.33° C | 91% | 984.3 hPa | 0 mm | - | - | - |
| 1787386578 | 18.33° C | 91% | 984.3 hPa | 0 mm | - | - | - |
| 1787385679 | 18.33° C | 91% | 984.3 hPa | 0 mm | - | - | - |
| 1787384778 | 17.78° C | 90% | 985.2 hPa | 0 mm | - | - | - |
| 1787383878 | 17.78° C | 90% | 985.2 hPa | 0 mm | - | - | - |
| 1787382978 | 17.78° C | 90% | 985.2 hPa | 0 mm | - | - | - |
| 1787382078 | 17.78° C | 90% | 985.2 hPa | 0 mm | - | - | - |
| 1787381178 | 17.78° C | 88% | 985.2 hPa | 0 mm | - | - | - |
| 1787380277 | 18.33° C | 89% | 985.4 hPa | 0 mm | - | - | - |
| 1787379377 | 18.33° C | 89% | 985.4 hPa | 0 mm | - | - | - |
| 1787378478 | 18.33° C | 89% | 985.4 hPa | 0 mm | - | - | - |
| 1787377577 | 18.33° C | 85% | 986.3 hPa | 0 mm | - | - | - |
| 1787376681 | 18.33° C | 87% | 986.1 hPa | 0 mm | - | - | - |
| 1787375780 | 18.33° C | 87% | 986.1 hPa | 0.51 mm | - | - | - |
| 1787374886 | 18.33° C | 87% | 986.1 hPa | 0.51 mm | - | - | - |
| 1787373982 | 17.78° C | 82% | 986.3 hPa | 0 mm | - | - | - |
| 1787373082 | 18.33° C | 80% | 986.4 hPa | 0 mm | - | - | - |
| 1787372182 | 17.78° C | 80% | 986.4 hPa | 0 mm | - | - | - |
| 1787371285 | 18.33° C | 80% | 986.4 hPa | 0 mm | - | - | - |
| 1787370383 | 18.33° C | 79% | 986.7 hPa | 0 mm | - | - | - |
| 1787369479 | 18.89° C | 79% | 986.7 hPa | 0 mm | - | - | - |
| 1787368579 | 19.44° C | 79% | 986.8 hPa | 0 mm | - | - | - |
* Rain latest hour (hover to see other rain measurements)
** Current wind speed in m/s (hover to see current wind gust speed)